| time (UTC) | temp F | wind direction | speed MPH | gust MPH | rain 1hr in | rain 24hr in | rain mn in | humidity % | barometer mb |
| 20260510153556 | 59 | 213 | 4.0 | 10.0 | 0.00 | 0.54 | 0.00 | 92 | 1013.1 |
| 20260510153101 | 59 | 189 | 5.0 | 10.0 | 0.00 | 0.54 | 0.00 | 92 | 1013.2 |
| 20260510152603 | 59 | 235 | 1.0 | 6.0 | 0.00 | 0.54 | 0.00 | 94 | 1013.2 |
| 20260510152059 | 59 | 0 | 2.0 | 6.0 | 0.00 | 0.54 | 0.00 | 94 | 1013.2 |
| 20260510151602 | 58 | 0 | 0.0 | 6.0 | 0.00 | 0.54 | 0.00 | 96 | 1013.1 |
| 20260510151059 | 57 | 0 | 1.0 | 6.0 | 0.00 | 0.54 | 0.00 | 96 | 1013.2 |
| 20260510150559 | 57 | 231 | 2.0 | 4.0 | 0.00 | 0.54 | 0.00 | 96 | 1013.3 |
| 20260510150058 | 56 | 0 | 0.0 | 3.0 | 0.00 | 0.54 | 0.00 | 97 | 1013.3 |
| 20260510145558 | 56 | 0 | 1.0 | 3.0 | 0.00 | 0.54 | 0.00 | 97 | 1013.1 |
| 20260510145058 | 56 | 193 | 0.0 | 3.0 | 0.00 | 0.54 | 0.00 | 97 | 1013.1 |
| 20260510144559 | 55 | 0 | 0.0 | 5.0 | 0.00 | 0.54 | 0.00 | 97 | 1013.1 |
| 20260510144059 | 55 | 0 | 0.0 | 5.0 | 0.00 | 0.54 | 0.00 | 97 | 1013.0 |
| 20260510143559 | 54 | 163 | 1.0 | 5.0 | 0.00 | 0.54 | 0.00 | 97 | 1012.9 |
| 20260510143102 | 54 | 0 | 0.0 | 0.0 | 0.00 | 0.54 | 0.00 | 97 | 1012.9 |
| 20260510142600 | 54 | 0 | 0.0 | 0.0 | 0.00 | 0.54 | 0.00 | 97 | 1012.8 |
| 20260510142102 | 53 | 0 | 0.0 | 0.0 | 0.00 | 0.54 | 0.00 | 97 | 1012.8 |
| 20260510141604 | 53 | 0 | 0.0 | 3.0 | 0.00 | 0.54 | 0.00 | 97 | 1012.7 |
| 20260510141057 | 53 | 0 | 0.0 | 3.0 | 0.00 | 0.54 | 0.00 | 97 | 1012.8 |
| 20260510140556 | 52 | 0 | 0.0 | 3.0 | 0.00 | 0.54 | 0.00 | 97 | 1012.8 |
| 20260510140058 | 52 | 140 | 0.0 | 4.0 | 0.00 | 0.54 | 0.00 | 97 | 1012.9 |
| 20260510135600 | 52 | 0 | 0.0 | 4.0 | 0.00 | 0.54 | 0.00 | 97 | 1012.8 |
| 20260510135056 | 52 | 140 | 0.0 | 5.0 | 0.00 | 0.54 | 0.00 | 97 | 1013.0 |
| 20260510134610 | 52 | 125 | 2.0 | 7.0 | 0.00 | 0.54 | 0.00 | 97 | 1012.8 |
| 20260510134058 | 52 | 125 | 2.0 | 7.0 | 0.00 | 0.54 | 0.00 | 97 | 1012.7 |
| 20260510133555 | 53 | 178 | 2.0 | 7.0 | 0.00 | 0.54 | 0.00 | 97 | 1012.7 |
| 20260510133118 | 53 | 0 | 2.0 | 7.0 | 0.00 | 0.54 | 0.00 | 97 | 1012.7 |
| 20260510132555 | 53 | 105 | 2.0 | 7.0 | 0.00 | 0.54 | 0.00 | 97 | 1012.7 |
| 20260510132058 | 53 | 136 | 2.0 | 7.0 | 0.00 | 0.54 | 0.00 | 97 | 1012.8 |
| 20260510131605 | 53 | 146 | 2.0 | 6.0 | 0.00 | 0.54 | 0.00 | 97 | 1012.9 |
| 20260510131056 | 53 | 91 | 2.0 | 8.0 | 0.00 | 0.54 | 0.00 | 97 | 1012.7 |
| 20260510130556 | 53 | 146 | 0.0 | 8.0 | 0.00 | 0.54 | 0.00 | 97 | 1012.7 |
| 20260510130057 | 53 | 134 | 1.0 | 5.0 | 0.00 | 0.54 | 0.00 | 97 | 1012.7 |
| 20260510125555 | 53 | 0 | 1.0 | 4.0 | 0.00 | 0.54 | 0.00 | 97 | 1012.6 |
| 20260510125056 | 53 | 119 | 0.0 | 3.0 | 0.00 | 0.54 | 0.00 | 97 | 1012.5 |
| 20260510124600 | 53 | 119 | 0.0 | 3.0 | 0.00 | 0.54 | 0.00 | 98 | 1012.6 |
| 20260510124053 | 53 | 117 | 1.0 | 3.0 | 0.00 | 0.54 | 0.00 | 97 | 1012.4 |
| 20260510123556 | 53 | 123 | 0.0 | 3.0 | 0.00 | 0.54 | 0.00 | 98 | 1012.5 |
| 20260510123104 | 53 | 0 | 0.0 | 3.0 | 0.00 | 0.54 | 0.00 | 97 | 1012.4 |
| 20260510122554 | 53 | 0 | 0.0 | 7.0 | 0.00 | 0.54 | 0.00 | 97 | 1012.2 |
| 20260510122052 | 53 | 129 | 2.0 | 7.0 | 0.00 | 0.54 | 0.00 | 97 | 1011.9 |
| 20260510121557 | 53 | 161 | 0.0 | 5.0 | 0.00 | 0.54 | 0.00 | 97 | 1011.8 |
| 20260510121056 | 53 | 163 | 1.0 | 5.0 | 0.00 | 0.54 | 0.00 | 97 | 1012.0 |
| 20260510120556 | 53 | 160 | 1.0 | 4.0 | 0.00 | 0.54 | 0.00 | 97 | 1012.0 |
| 20260510120055 | 53 | 0 | 0.0 | 6.0 | 0.00 | 0.54 | 0.00 | 98 | 1012.0 |
| 20260510115558 | 53 | 0 | 0.0 | 6.0 | 0.00 | 0.54 | 0.00 | 97 | 1012.1 |
| 20260510115056 | 53 | 0 | 1.0 | 6.0 | 0.00 | 0.54 | 0.00 | 97 | 1012.0 |
| 20260510114554 | 53 | 123 | 1.0 | 4.0 | 0.00 | 0.54 | 0.00 | 97 | 1011.9 |
| 20260510114057 | 53 | 117 | 1.0 | 4.0 | 0.00 | 0.54 | 0.00 | 98 | 1011.8 |
| 20260510113557 | 53 | 216 | 0.0 | 5.0 | 0.00 | 0.54 | 0.00 | 97 | 1011.7 |
| 20260510113055 | 53 | 170 | 1.0 | 5.0 | 0.00 | 0.54 | 0.00 | 97 | 1011.7 |
| 20260510112553 | 53 | 182 | 0.0 | 4.0 | 0.00 | 0.54 | 0.00 | 97 | 1011.6 |
| 20260510112056 | 53 | 182 | 0.0 | 4.0 | 0.00 | 0.54 | 0.00 | 97 | 1011.7 |
| 20260510111602 | 53 | 192 | 1.0 | 4.0 | 0.00 | 0.54 | 0.00 | 97 | 1011.8 |
| 20260510111055 | 53 | 0 | 0.0 | 4.0 | 0.00 | 0.54 | 0.00 | 97 | 1011.6 |
| 20260510110556 | 53 | 0 | 1.0 | 6.0 | 0.00 | 0.54 | 0.00 | 97 | 1011.7 |
| 20260510110054 | 53 | 196 | 0.0 | 6.0 | 0.00 | 0.54 | 0.00 | 97 | 1011.7 |
| 20260510105556 | 53 | 199 | 1.0 | 4.0 | 0.00 | 0.54 | 0.00 | 98 | 1011.6 |
| 20260510105056 | 52 | 0 | 1.0 | 4.0 | 0.00 | 0.54 | 0.00 | 97 | 1011.7 |
| 20260510104556 | 52 | 0 | 0.0 | 2.0 | 0.00 | 0.54 | 0.00 | 97 | 1011.7 |
| 20260510104100 | 52 | 0 | 0.0 | 2.0 | 0.00 | 0.54 | 0.00 | 97 | 1011.7 |
| 20260510103558 | 51 | 0 | 0.0 | 1.0 | 0.00 | 0.54 | 0.00 | 97 | 1011.6 |
| 20260510103059 | 51 | 0 | 0.0 | 0.0 | 0.00 | 0.54 | 0.00 | 97 | 1011.6 |
| 20260510102556 | 51 | 0 | 0.0 | 0.0 | 0.00 | 0.54 | 0.00 | 97 | 1011.7 |
| 20260510102056 | 51 | 0 | 0.0 | 0.0 | 0.00 | 0.54 | 0.00 | 97 | 1011.5 |
| 20260510101557 | 51 | 0 | 0.0 | 0.0 | 0.00 | 0.54 | 0.00 | 97 | 1011.5 |
| 20260510101058 | 51 | 0.0 | 0.0 | 0.00 | 0.54 | 0.00 | 97 | 1011.4 | |
| 20260510100556 | 51 | 0.0 | 0.0 | 0.00 | 0.54 | 0.00 | 97 | 1011.5 | |
| 20260510100057 | 52 | 0.0 | 0.0 | 0.00 | 0.54 | 0.00 | 97 | 1011.4 | |
| 20260510095556 | 52 | 0.0 | 0.0 | 0.00 | 0.54 | 0.00 | 97 | 1011.5 | |
| 20260510095056 | 52 | 0.0 | 0.0 | 0.00 | 0.54 | 0.00 | 97 | 1011.7 | |
| 20260510094600 | 52 | 0.0 | 0.0 | 0.00 | 0.54 | 0.00 | 97 | 1011.7 | |
| 20260510094058 | 52 | 0.0 | 0.0 | 0.00 | 0.54 | 0.00 | 97 | 1011.6 | |
| 20260510093559 | 52 | 0.0 | 0.0 | 0.00 | 0.54 | 0.00 | 97 | 1011.6 | |
| 20260510093058 | 52 | 0.0 | 0.0 | 0.00 | 0.54 | 0.00 | 97 | 1011.9 | |
| 20260510092557 | 52 | 0.0 | 0.0 | 0.00 | 0.54 | 0.00 | 97 | 1011.7 | |
| 20260510092058 | 52 | 0.0 | 0.0 | 0.00 | 0.54 | 0.00 | 97 | 1011.8 | |
| 20260510091600 | 52 | 0.0 | 0.0 | 0.00 | 0.54 | 0.00 | 97 | 1011.8 | |
| 20260510091056 | 52 | 0.0 | 0.0 | 0.00 | 0.54 | 0.00 | 97 | 1011.8 | |
| 20260510090556 | 52 | 0.0 | 0.0 | 0.00 | 0.54 | 0.00 | 97 | 1011.7 | |
| 20260510090112 | 52 | 0.0 | 0.0 | 0.00 | 0.54 | 0.00 | 97 | 1011.7 | |
| 20260510085602 | 52 | 0.0 | 0.0 | 0.00 | 0.54 | 0.00 | 97 | 1011.8 | |
| 20260510085055 | 52 | 0.0 | 0.0 | 0.00 | 0.54 | 0.00 | 97 | 1011.7 | |
| 20260510084558 | 52 | 0.0 | 0.0 | 0.00 | 0.54 | 0.00 | 97 | 1011.8 | |
| 20260510084058 | 52 | 0.0 | 0.0 | 0.00 | 0.54 | 0.00 | 97 | 1011.9 | |
| 20260510083556 | 52 | 0.0 | 0.0 | 0.00 | 0.54 | 0.00 | 97 | 1011.6 | |
| 20260510083057 | 52 | 0.0 | 0.0 | 0.00 | 0.54 | 0.00 | 97 | 1011.6 | |
| 20260510082556 | 52 | 0.0 | 0.0 | 0.00 | 0.54 | 0.00 | 97 | 1011.2 | |
| 20260510082056 | 52 | 0.0 | 0.0 | 0.00 | 0.54 | 0.00 | 97 | 1011.0 | |
| 20260510081557 | 52 | 0.0 | 0.0 | 0.00 | 0.54 | 0.00 | 97 | 1010.9 | |
| 20260510081056 | 52 | 0.0 | 0.0 | 0.00 | 0.54 | 0.00 | 97 | 1010.9 | |
| 20260510080555 | 52 | 0.0 | 0.0 | 0.00 | 0.54 | 0.00 | 97 | 1010.9 | |
| 20260510080100 | 52 | 0.0 | 0.0 | 0.00 | 0.54 | 0.00 | 97 | 1010.8 | |
| 20260510075555 | 52 | 0.0 | 0.0 | 0.00 | 0.54 | 0.00 | 97 | 1010.6 | |
| 20260510075055 | 52 | 0.0 | 0.0 | 0.00 | 0.54 | 0.00 | 97 | 1010.7 | |
| 20260510074601 | 52 | 0.0 | 0.0 | 0.00 | 0.54 | 0.00 | 97 | 1010.8 | |
| 20260510074056 | 52 | 0.0 | 0.0 | 0.00 | 0.54 | 0.00 | 97 | 1010.9 | |
| 20260510073557 | 52 | 0.0 | 0.0 | 0.00 | 0.54 | 0.00 | 97 | 1011.0 | |
| 20260510073113 | 52 | 0.0 | 0.0 | 0.00 | 0.54 | 0.00 | 97 | 1010.9 | |
| 20260510072558 | 52 | 0.0 | 0.0 | 0.00 | 0.54 | 0.00 | 97 | 1010.9 | |
| 20260510072058 | 52 | 0.0 | 0.0 | 0.00 | 0.54 | 0.00 | 97 | 1010.9 | |
| 20260510071606 | 52 | 0.0 | 0.0 | 0.00 | 0.54 | 0.00 | 97 | 1010.9 | |
| 20260510071059 | 52 | 0.0 | 0.0 | 0.00 | 0.54 | 0.00 | 97 | 1010.9 | |
| 20260510070558 | 52 | 0.0 | 0.0 | 0.00 | 0.54 | 0.00 | 97 | 1010.9 | |
| 20260510070056 | 52 | 0.0 | 0.0 | 0.00 | 0.54 | 0.00 | 97 | 1010.9 | |
| 20260510065555 | 52 | 0.0 | 0.0 | 0.00 | 0.54 | 0.00 | 97 | 1011.0 | |
| 20260510065057 | 52 | 0.0 | 0.0 | 0.00 | 0.54 | 0.00 | 97 | 1011.0 | |
| 20260510064602 | 52 | 0.0 | 0.0 | 0.00 | 0.54 | 0.00 | 97 | 1010.9 | |
| 20260510064057 | 52 | 0.0 | 0.0 | 0.00 | 0.54 | 0.00 | 97 | 1011.0 | |
| 20260510063558 | 52 | 0.0 | 0.0 | 0.00 | 0.54 | 0.00 | 97 | 1010.9 | |
| 20260510063102 | 52 | 0.0 | 0.0 | 0.00 | 0.54 | 0.00 | 97 | 1010.9 | |
| 20260510062556 | 52 | 0.0 | 0.0 | 0.00 | 0.54 | 0.00 | 97 | 1010.7 | |
| 20260510062054 | 52 | 0.0 | 0.0 | 0.00 | 0.54 | 0.00 | 97 | 1010.7 | |
| 20260510061601 | 52 | 0.0 | 0.0 | 0.00 | 0.54 | 0.00 | 97 | 1010.7 | |
| 20260510061059 | 52 | 0.0 | 0.0 | 0.00 | 0.54 | 0.00 | 97 | 1010.6 | |
| 20260510060557 | 52 | 0.0 | 0.0 | 0.00 | 0.54 | 0.00 | 97 | 1010.7 | |
| 20260510060059 | 53 | 0.0 | 0.0 | 0.00 | 0.54 | 0.00 | 97 | 1010.6 | |
| 20260510055559 | 53 | 0.0 | 0.0 | 0.00 | 0.54 | 0.00 | 97 | 1010.7 | |
| 20260510055056 | 53 | 0.0 | 0.0 | 0.00 | 0.54 | 0.00 | 97 | 1010.8 | |
| 20260510054559 | 53 | 0.0 | 0.0 | 0.00 | 0.54 | 0.00 | 97 | 1010.8 | |
| 20260510054058 | 53 | 0.0 | 0.0 | 0.00 | 0.54 | 0.00 | 97 | 1010.8 | |
| 20260510053558 | 53 | 0.0 | 0.0 | 0.00 | 0.54 | 0.00 | 97 | 1010.7 | |
| 20260510053110 | 53 | 0.0 | 0.0 | 0.00 | 0.54 | 0.00 | 97 | 1010.9 | |
| 20260510052558 | 53 | 0.0 | 0.0 | 0.00 | 0.54 | 0.00 | 97 | 1011.0 | |
| 20260510052055 | 53 | 0.0 | 0.0 | 0.00 | 0.54 | 0.00 | 97 | 1011.0 | |
| 20260510051559 | 53 | 0.0 | 0.0 | 0.00 | 0.54 | 0.00 | 97 | 1011.0 | |
| 20260510051054 | 53 | 0.0 | 0.0 | 0.00 | 0.54 | 0.00 | 97 | 1010.9 | |
| 20260510050557 | 53 | 0.0 | 0.0 | 0.00 | 0.54 | 0.00 | 97 | 1010.9 | |
| 20260510050059 | 53 | 0.0 | 0.0 | 0.00 | 0.54 | 0.00 | 97 | 1011.1 | |
| 20260510045558 | 53 | 0.0 | 0.0 | 0.00 | 0.54 | 0.00 | 97 | 1011.0 | |
| 20260510045100 | 53 | 0.0 | 0.0 | 0.00 | 0.54 | 0.00 | 97 | 1011.1 | |
| 20260510044605 | 53 | 0.0 | 0.0 | 0.00 | 0.54 | 0.00 | 97 | 1011.0 | |
| 20260510044054 | 53 | 0.0 | 0.0 | 0.00 | 0.54 | 0.00 | 97 | 1010.9 | |
| 20260510043557 | 53 | 0.0 | 0.0 | 0.00 | 0.54 | 0.00 | 97 | 1011.1 | |
| 20260510043110 | 53 | 0.0 | 0.0 | 0.00 | 0.54 | 0.00 | 97 | 1011.1 | |
| 20260510042556 | 53 | 0.0 | 0.0 | 0.00 | 0.54 | 0.00 | 97 | 1010.9 | |
| 20260510042056 | 53 | 0.0 | 0.0 | 0.00 | 0.54 | 0.00 | 97 | 1010.8 | |
| 20260510041601 | 53 | 0.0 | 0.0 | 0.00 | 0.54 | 0.00 | 97 | 1010.8 | |
| 20260510041056 | 53 | 0.0 | 0.0 | 0.00 | 0.54 | 0.00 | 97 | 1010.8 | |
| 20260510040631 | 53 | 0.0 | 0.0 | 0.00 | 0.54 | 0.00 | 97 | 1010.8 | |
| 20260510040115 | 53 | 0.0 | 0.0 | 0.00 | 0.54 | 0.00 | 97 | 1010.7 | |
| 20260510035557 | 53 | 0.0 | 0.0 | 0.00 | 0.54 | 0.54 | 96 | 1010.7 | |
| 20260510035058 | 53 | 0.0 | 0.0 | 0.00 | 0.54 | 0.54 | 96 | 1010.6 | |
| 20260510034556 | 53 | 0.0 | 0.0 | 0.00 | 0.54 | 0.54 | 96 | 1010.6 | |
| 20260510034055 | 53 | 0.0 | 0.0 | 0.00 | 0.54 | 0.54 | 96 | 1010.6 | |
| 20260510033557 | 53 | 0.0 | 0.0 | 0.00 | 0.54 | 0.54 | 97 | 1010.6 | |
| 20260510033101 | 53 | 0.0 | 0.0 | 0.00 | 0.54 | 0.54 | 96 | 1010.8 | |
| 20260510032556 | 53 | 0.0 | 0.0 | 0.00 | 0.54 | 0.54 | 96 | 1010.7 | |
| 20260510032057 | 53 | 0.0 | 0.0 | 0.00 | 0.54 | 0.54 | 96 | 1010.6 | |
| 20260510031600 | 53 | 0.0 | 0.0 | 0.00 | 0.54 | 0.54 | 96 | 1010.5 | |
| 20260510031056 | 53 | 0.0 | 0.0 | 0.00 | 0.54 | 0.54 | 96 | 1010.7 | |
| 20260510030557 | 53 | 0.0 | 0.0 | 0.00 | 0.54 | 0.54 | 96 | 1010.8 | |
| 20260510030056 | 53 | 0.0 | 0.0 | 0.00 | 0.54 | 0.54 | 96 | 1010.8 | |
| 20260510025556 | 53 | 0.0 | 0.0 | 0.00 | 0.54 | 0.54 | 96 | 1011.0 | |
| 20260510025056 | 53 | 0.0 | 0.0 | 0.00 | 0.54 | 0.54 | 96 | 1010.9 | |
| 20260510024557 | 53 | 0.0 | 0.0 | 0.00 | 0.54 | 0.54 | 96 | 1010.9 | |
| 20260510024056 | 53 | 0.0 | 0.0 | 0.00 | 0.54 | 0.54 | 96 | 1010.9 | |
| 20260510023556 | 53 | 0.0 | 0.0 | 0.00 | 0.54 | 0.54 | 96 | 1010.9 | |
| 20260510023057 | 53 | 0.0 | 0.0 | 0.00 | 0.54 | 0.54 | 96 | 1010.8 | |
| 20260510022556 | 53 | 0.0 | 0.0 | 0.00 | 0.54 | 0.54 | 96 | 1010.9 | |
| 20260510022056 | 53 | 0.0 | 0.0 | 0.00 | 0.54 | 0.54 | 96 | 1010.9 | |
| 20260510021601 | 53 | 0.0 | 0.0 | 0.00 | 0.54 | 0.54 | 96 | 1010.9 | |
| 20260510021056 | 53 | 0.0 | 0.0 | 0.00 | 0.54 | 0.54 | 96 | 1010.8 | |
| 20260510020556 | 53 | 0.0 | 0.0 | 0.00 | 0.54 | 0.54 | 96 | 1010.6 | |
| 20260510020058 | 53 | 0.0 | 0.0 | 0.00 | 0.54 | 0.54 | 96 | 1010.6 | |
| 20260510015556 | 53 | 0.0 | 0.0 | 0.00 | 0.54 | 0.54 | 96 | 1010.9 | |
| 20260510015101 | 53 | 0.0 | 0.0 | 0.00 | 0.54 | 0.54 | 96 | 1010.9 | |
| 20260510014606 | 53 | 0.0 | 0.0 | 0.00 | 0.54 | 0.54 | 96 | 1010.8 | |
| 20260510014056 | 53 | 0.0 | 0.0 | 0.00 | 0.54 | 0.54 | 96 | 1010.7 | |
| 20260510013600 | 53 | 0.0 | 0.0 | 0.00 | 0.54 | 0.54 | 96 | 1010.7 | |
| 20260510013100 | 53 | 0.0 | 0.0 | 0.00 | 0.54 | 0.54 | 96 | 1010.5 | |
| 20260510012556 | 53 | 0.0 | 0.0 | 0.00 | 0.54 | 0.54 | 96 | 1010.6 | |
| 20260510012056 | 53 | 0.0 | 0.0 | 0.00 | 0.54 | 0.54 | 96 | 1010.6 | |
| 20260510011557 | 53 | 0.0 | 0.0 | 0.00 | 0.54 | 0.54 | 96 | 1010.8 | |
| 20260510011057 | 53 | 0.0 | 0.0 | 0.00 | 0.54 | 0.54 | 96 | 1010.6 | |
| 20260510010556 | 53 | 0.0 | 0.0 | 0.00 | 0.54 | 0.54 | 96 | 1010.3 | |
| 20260510010056 | 53 | 0.0 | 0.0 | 0.00 | 0.54 | 0.54 | 96 | 1010.6 | |
| 20260510005617 | 53 | 0.0 | 0.0 | 0.00 | 0.54 | 0.54 | 96 | 1010.6 | |
| 20260510005056 | 53 | 0.0 | 0.0 | 0.00 | 0.54 | 0.54 | 96 | 1010.4 | |
| 20260510004559 | 53 | 0.0 | 0.0 | 0.00 | 0.54 | 0.54 | 96 | 1010.3 | |
| 20260510004100 | 53 | 0.0 | 0.0 | 0.00 | 0.54 | 0.54 | 96 | 1010.4 | |
| 20260510003556 | 53 | 0.0 | 0.0 | 0.00 | 0.54 | 0.54 | 96 | 1010.5 | |
| 20260510003100 | 53 | 0.0 | 0.0 | 0.00 | 0.54 | 0.54 | 96 | 1010.3 | |
| 20260510002557 | 53 | 0.0 | 0.0 | 0.00 | 0.54 | 0.54 | 96 | 1010.3 | |
| 20260510002057 | 53 | 0.0 | 0.0 | 0.00 | 0.54 | 0.54 | 96 | 1010.3 | |
| 20260510001557 | 53 | 0.0 | 0.0 | 0.01 | 0.54 | 0.54 | 96 | 1010.1 | |
| 20260510001056 | 53 | 0.0 | 0.0 | 0.01 | 0.54 | 0.54 | 96 | 1010.1 | |
| 20260510000556 | 53 | 0.0 | 0.0 | 0.01 | 0.54 | 0.54 | 96 | 1010.1 | |
| 20260510000059 | 54 | 0.0 | 0.0 | 0.02 | 0.54 | 0.54 | 96 | 1010.2 | |
| 20260509235558 | 54 | 0.0 | 0.0 | 0.04 | 0.54 | 0.54 | 96 | 1010.0 | |
| 20260509235056 | 54 | 0.0 | 0.0 | 0.06 | 0.54 | 0.54 | 96 | 1009.7 | |
| 20260509234602 | 53 | 0.0 | 0.0 | 0.08 | 0.54 | 0.54 | 96 | 1009.8 | |
| 20260509234057 | 53 | 0.0 | 0.0 | 0.12 | 0.54 | 0.54 | 95 | 1009.5 | |
| 20260509233600 | 53 | 0.0 | 0.0 | 0.14 | 0.54 | 0.54 | 95 | 1009.5 | |
| 20260509233058 | 53 | 0.0 | 0.0 | 0.15 | 0.54 | 0.54 | 95 | 1009.5 | |
| 20260509232559 | 54 | 0.0 | 0.0 | 0.16 | 0.54 | 0.54 | 95 | 1010.1 | |
| 20260509232057 | 53 | 0.0 | 0.0 | 0.17 | 0.54 | 0.54 | 95 | 1010.2 | |
| 20260509231558 | 54 | 0.0 | 0.0 | 0.17 | 0.52 | 0.52 | 95 | 1010.4 | |
| 20260509231056 | 54 | 0.0 | 0.0 | 0.17 | 0.52 | 0.52 | 95 | 1010.3 | |
| 20260509230556 | 54 | 0.0 | 0.0 | 0.18 | 0.52 | 0.52 | 95 | 1010.5 | |
| 20260509230058 | 54 | 0.0 | 0.0 | 0.19 | 0.52 | 0.52 | 95 | 1010.7 | |
| 20260509225556 | 54 | 0.0 | 0.0 | 0.23 | 0.50 | 0.50 | 95 | 1010.8 | |
| 20260509225056 | 54 | 0.0 | 0.0 | 0.24 | 0.48 | 0.48 | 95 | 1011.0 | |
| 20260509224601 | 54 | 0.0 | 0.0 | 0.21 | 0.45 | 0.45 | 95 | 1011.1 | |
| 20260509224056 | 54 | 0.0 | 0.0 | 0.19 | 0.42 | 0.42 | 95 | 1011.1 | |
| 20260509223556 | 55 | 0.0 | 0.0 | 0.18 | 0.40 | 0.40 | 95 | 1010.9 | |
| 20260509223059 | 55 | 0.0 | 0.0 | 0.17 | 0.39 | 0.39 | 95 | 1010.9 | |
| 20260509222559 | 55 | 0.0 | 0.0 | 0.16 | 0.38 | 0.38 | 95 | 1010.8 | |
| 20260509222056 | 55 | 0.0 | 0.0 | 0.15 | 0.37 | 0.37 | 95 | 1011.0 | |
| 20260509221605 | 55 | 0.0 | 0.0 | 0.14 | 0.36 | 0.36 | 95 | 1010.9 | |
| 20260509221055 | 55 | 0.0 | 0.0 | 0.14 | 0.36 | 0.36 | 95 | 1010.9 | |
| 20260509220600 | 55 | 0.0 | 0.0 | 0.14 | 0.35 | 0.35 | 95 | 1010.8 | |
| 20260509220100 | 55 | 0.0 | 0.0 | 0.12 | 0.33 | 0.33 | 95 | 1011.0 | |
| 20260509215558 | 55 | 0.0 | 0.0 | 0.05 | 0.26 | 0.26 | 94 | 1011.2 | |
| 20260509215057 | 55 | 0.0 | 0.0 | 0.03 | 0.24 | 0.24 | 95 | 1011.2 | |
| 20260509214607 | 55 | 0.0 | 0.0 | 0.03 | 0.24 | 0.24 | 95 | 1011.2 | |
| 20260509214055 | 55 | 0.0 | 0.0 | 0.02 | 0.23 | 0.23 | 95 | 1011.1 | |
| 20260509213559 | 55 | 0.0 | 0.0 | 0.01 | 0.22 | 0.22 | 95 | 1011.1 | |
| 20260509213057 | 55 | 0.0 | 0.0 | 0.01 | 0.22 | 0.22 | 94 | 1011.0 | |
| 20260509212557 | 55 | 0.0 | 0.0 | 0.01 | 0.22 | 0.22 | 94 | 1011.1 | |
| 20260509212059 | 56 | 0.0 | 0.0 | 0.01 | 0.22 | 0.22 | 94 | 1011.0 | |
| 20260509211600 | 55 | 0.0 | 0.0 | 0.01 | 0.22 | 0.22 | 94 | 1011.2 | |
| 20260509211101 | 56 | 0.0 | 0.0 | 0.01 | 0.22 | 0.22 | 94 | 1011.2 | |
| 20260509210557 | 56 | 0.0 | 0.0 | 0.00 | 0.21 | 0.21 | 94 | 1011.0 | |
| 20260509210115 | 56 | 0.0 | 0.0 | 0.00 | 0.21 | 0.21 | 94 | 1011.0 | |
| 20260509205556 | 56 | 0.0 | 0.0 | 0.02 | 0.21 | 0.21 | 94 | 1011.1 | |
| 20260509205056 | 56 | 0.0 | 0.0 | 0.03 | 0.21 | 0.21 | 94 | 1011.0 | |
| 20260509204600 | 56 | 0.0 | 0.0 | 0.04 | 0.21 | 0.21 | 94 | 1011.1 | |
| 20260509204057 | 56 | 0.0 | 0.0 | 0.04 | 0.21 | 0.21 | 94 | 1011.0 | |
| 20260509203554 | 56 | 0.0 | 0.0 | 0.05 | 0.21 | 0.21 | 94 | 1010.9 | |
| 20260509203056 | 56 | 0.0 | 0.0 | 0.06 | 0.21 | 0.21 | 94 | 1010.8 | |
| 20260509202554 | 56 | 0.0 | 0.0 | 0.07 | 0.21 | 0.21 | 94 | 1010.6 | |
| 20260509202100 | 56 | 0.0 | 0.0 | 0.07 | 0.21 | 0.21 | 94 | 1010.7 | |
| 20260509201603 | 56 | 0.0 | 0.0 | 0.08 | 0.21 | 0.21 | 94 | 1010.8 | |
| 20260509201057 | 56 | 0.0 | 0.0 | 0.09 | 0.21 | 0.21 | 93 | 1010.9 | |
| 20260509200556 | 56 | 5.0 | 0.0 | 0.09 | 0.21 | 0.21 | 93 | 1010.8 | |
| 20260509200104 | 56 | 5.0 | 11.0 | 0.09 | 0.21 | 0.21 | 93 | 1011.1 | |
| 20260509195600 | 56 | 231 | 5.0 | 11.0 | 0.08 | 0.19 | 0.19 | 93 | 1011.4 |
| 20260509195056 | 56 | 259 | 4.0 | 11.0 | 0.08 | 0.18 | 0.18 | 93 | 1011.3 |
| 20260509194606 | 56 | 197 | 4.0 | 11.0 | 0.07 | 0.17 | 0.17 | 93 | 1011.3 |
| 20260509194057 | 56 | 236 | 3.0 | 11.0 | 0.08 | 0.17 | 0.17 | 93 | 1011.3 |
| 20260509193558 | 56 | 219 | 3.0 | 13.0 | 0.08 | 0.16 | 0.16 | 93 | 1011.4 |
| 20260509193058 | 56 | 202 | 1.0 | 14.0 | 0.08 | 0.15 | 0.15 | 93 | 1011.3 |
| 20260509192600 | 56 | 232 | 5.0 | 14.0 | 0.08 | 0.14 | 0.14 | 92 | 1011.2 |
| 20260509192057 | 56 | 200 | 6.0 | 12.0 | 0.08 | 0.14 | 0.14 | 92 | 1011.0 |
| 20260509191603 | 56 | 169 | 2.0 | 8.0 | 0.09 | 0.13 | 0.13 | 92 | 1010.9 |
| 20260509191059 | 57 | 173 | 3.0 | 11.0 | 0.12 | 0.12 | 0.12 | 92 | 1011.0 |
| 20260509190554 | 57 | 153 | 2.0 | 11.0 | 0.12 | 0.12 | 0.12 | 92 | 1010.9 |
| 20260509190109 | 57 | 180 | 3.0 | 10.0 | 0.12 | 0.12 | 0.12 | 91 | 1010.9 |
| 20260509185555 | 57 | 198 | 3.0 | 6.0 | 0.11 | 0.11 | 0.11 | 91 | 1010.8 |
| 20260509185056 | 57 | 187 | 1.0 | 8.0 | 0.10 | 0.10 | 0.10 | 91 | 1010.6 |
| 20260509184558 | 57 | 192 | 1.0 | 8.0 | 0.09 | 0.09 | 0.09 | 90 | 1010.9 |
| 20260509184057 | 57 | 167 | 2.0 | 6.0 | 0.09 | 0.09 | 0.09 | 90 | 1010.9 |
| 20260509183557 | 57 | 202 | 2.0 | 5.0 | 0.08 | 0.08 | 0.08 | 89 | 1011.1 |
| 20260509183101 | 57 | 188 | 2.0 | 6.0 | 0.07 | 0.07 | 0.07 | 88 | 1011.1 |
| 20260509182553 | 58 | 222 | 0.0 | 9.0 | 0.06 | 0.06 | 0.06 | 87 | 1010.8 |
| 20260509182054 | 58 | 222 | 1.0 | 10.0 | 0.06 | 0.06 | 0.06 | 84 | 1010.8 |
| 20260509181600 | 59 | 194 | 5.0 | 10.0 | 0.04 | 0.04 | 0.04 | 82 | 1011.3 |
| 20260509181057 | 60 | 208 | 3.0 | 10.0 | 0.00 | 0.00 | 0.00 | 80 | 1011.2 |
| 20260509180557 | 61 | 193 | 4.0 | 10.0 | 0.00 | 0.00 | 0.00 | 79 | 1010.9 |
| 20260509175555 | 61 | 197 | 3.0 | 9.0 | 0.00 | 0.00 | 0.00 | 77 | 1010.7 |
| 20260509175057 | 61 | 202 | 4.0 | 9.0 | 0.00 | 0.00 | 0.00 | 76 | 1010.6 |
| 20260509174556 | 62 | 231 | 3.0 | 9.0 | 0.00 | 0.00 | 0.00 | 76 | 1010.5 |
| 20260509174057 | 62 | 142 | 3.0 | 10.0 | 0.00 | 0.00 | 0.00 | 76 | 1010.2 |
| 20260509173554 | 62 | 184 | 4.0 | 10.0 | 0.00 | 0.00 | 0.00 | 75 | 1010.4 |
| 20260509173056 | 63 | 191 | 1.0 | 9.0 | 0.00 | 0.00 | 0.00 | 75 | 1010.6 |
| 20260509172557 | 62 | 193 | 3.0 | 9.0 | 0.00 | 0.00 | 0.00 | 74 | 1010.6 |
| 20260509172054 | 62 | 167 | 1.0 | 7.0 | 0.00 | 0.00 | 0.00 | 75 | 1010.8 |
| 20260509171556 | 63 | 231 | 4.0 | 7.0 | 0.00 | 0.00 | 0.00 | 72 | 1010.7 |
| 20260509171057 | 63 | 135 | 3.0 | 7.0 | 0.00 | 0.00 | 0.00 | 76 | 1010.7 |
| 20260509170557 | 63 | 246 | 1.0 | 7.0 | 0.00 | 0.00 | 0.00 | 75 | 1010.9 |
| 20260509170107 | 62 | 252 | 2.0 | 7.0 | 0.00 | 0.00 | 0.00 | 75 | 1011.0 |
| 20260509165557 | 62 | 163 | 2.0 | 7.0 | 0.00 | 0.00 | 0.00 | 76 | 1011.1 |
| 20260509165057 | 62 | 204 | 3.0 | 7.0 | 0.00 | 0.00 | 0.00 | 75 | 1011.3 |
| 20260509164558 | 62 | 123 | 2.0 | 7.0 | 0.00 | 0.00 | 0.00 | 77 | 1011.4 |
| 20260509164054 | 61 | 0 | 2.0 | 7.0 | 0.00 | 0.00 | 0.00 | 75 | 1011.5 |
| 20260509163556 | 61 | 138 | 1.0 | 4.0 | 0.00 | 0.00 | 0.00 | 78 | 1011.6 |
| 20260509163058 | 60 | 107 | 0.0 | 4.0 | 0.00 | 0.00 | 0.00 | 77 | 1011.5 |
| 20260509162555 | 59 | 107 | 1.0 | 7.0 | 0.00 | 0.00 | 0.00 | 78 | 1011.6 |
| 20260509162055 | 59 | 105 | 2.0 | 7.0 | 0.00 | 0.00 | 0.00 | 78 | 1011.7 |
| 20260509161600 | 60 | 71 | 3.0 | 7.0 | 0.00 | 0.00 | 0.00 | 79 | 1011.7 |
| 20260509161054 | 59 | 100 | 2.0 | 6.0 | 0.00 | 0.00 | 0.00 | 80 | 1011.8 |
| 20260509160554 | 58 | 144 | 1.0 | 5.0 | 0.00 | 0.00 | 0.00 | 80 | 1011.8 |
| 20260509160057 | 58 | 96 | 1.0 | 5.0 | 0.00 | 0.00 | 0.00 | 81 | 1011.8 |
| 20260509155557 | 57 | 163 | 1.0 | 6.0 | 0.00 | 0.00 | 0.00 | 81 | 1011.8 |
| 20260509155053 | 58 | 99 | 2.0 | 8.0 | 0.00 | 0.00 | 0.00 | 81 | 1011.9 |
| 20260509154559 | 57 | 142 | 0.0 | 8.0 | 0.00 | 0.00 | 0.00 | 81 | 1012.0 |
| 20260509154057 | 57 | 78 | 3.0 | 8.0 | 0.00 | 0.00 | 0.00 | 81 | 1011.9 |